Tracking 30115 objects as of 17-Jan-2025
HD Live streaming from Space Station
objects crossing your sky now

STARLINK-31281

Track STARLINK-31281 now!
10-day predictions
STARLINK-31281 is classified as:


NORAD ID: 59077
Int'l Code: 2024-041D
Perigee: 494.3 km
Apogee: 496.1 km
Inclination: 43.0 °
Period: 94.4 minutes
Semi major axis: 6866 km
RCS: Unknown
Launch date: February 29, 2024
Source: United States (US)
Launch site: AIR FORCE EASTERN TEST RANGE (AFETR)
Your satellite tracking list
Your tracking list is empty




NASA's NSSDC Master Catalog

Two Line Element Set (TLE):
1 59077U 24041D   25016.67830484 -.00000005  00000-0  96591-5 0  9994
2 59077  43.0009 144.1737 0001347 250.4111 109.6595 15.25906555 50566
Source of the keplerian elements: AFSPC